Regional Weather Roundup
Issued by NWS

Home | Current Version | Previous Version | Graphics & Text | Print | Product List | Glossary On
Versions: 1 2 3 4 5 6 7 8 9 10 11 12 13 14 15 16 17 18 19 20 21 22 23 24 25 26 27 28 29 30 31 32 33 34 35 36 37 38 39 40 41 42 43 44 45 46 47 48 49 50
284
ASUS43 KLOT 221209
RWRIL

ILLINOIS REGIONAL WEATHER ROUNDUP
NATIONAL WEATHER SERVICE CHICAGO/ROMEOVILLE IL
700 AM CDT SAT JUL 22 2017

NOTE: "FAIR" INDICATES FEW OR NO CLOUDS BELOW 12,000 FEET WITH NO
SIGNIFICANT WEATHER AND/OR OBSTRUCTIONS TO VISIBILITY.

* THESE STATIONS ARE NOT UNDER NWS QUALITY CONTROL. THEY ALSO MAY NOT
  REPORT WEATHER SUCH AS PRECIPITATION OR FOG.

ILZ001-002-007-009-015-016-024-221300-
NORTHWEST ILLINOIS

CITY           SKY/WX    TMP DP  RH WIND       PRES   REMARKS
MOLINE         CLOUDY    70  67  90 S15       29.77F
6HR MIN TEMP:  69; 6HR MAX TEMP:  77; 6HR PCP:  3.11;

STERLING*      LGT RAIN  68  68 100 S8G16     29.79F
SAVANNA*       LGT RAIN  69  68  96 S23       29.70F
$$

ILZ003-004-008-010-011-017-018-221300-
NORTH CENTRAL ILLINOIS

CITY           SKY/WX    TMP DP  RH WIND       PRES   REMARKS
ROCKFORD       LGT RAIN  72  67  84 S9        29.77F
6HR MIN TEMP:  71; 6HR MAX TEMP:  74; 6HR PCP:  0.52;

FREEPORT*      CLOUDY    67  66  99 S20G31    29.71F
ROCHELLE*      RAIN      68  67  96 S16G24    29.77F
DE KALB*       LGT RAIN  69  67  93 S25       29.78F
PERU*          LGT RAIN  54  44  68 S6        29.86F
$$

ILZ005-006-012>014-019>023-221300-
NORTHEAST ILLINOIS

CITY           SKY/WX    TMP DP  RH WIND       PRES   REMARKS
CHICAGO-OHARE  LGT RAIN  72  68  87 SW10      29.81R
6HR MIN TEMP:  72; 6HR MAX TEMP:  74; 6HR PCP:  0.65;

CHICAGO-MIDWAY LGT RAIN  72  70  93 W12       29.81R
6HR MIN TEMP:  72; 6HR MAX TEMP:  74;

AURORA         LGT RAIN  71  69  93 S14       29.84R
6HR MIN TEMP:  70; 6HR MAX TEMP:  73; 6HR PCP:  0.59;

LANSING*       LGT RAIN  71  68  90 SW13      29.82S
JOLIET*        RAIN      72  71  96 SW9       29.87R
WAUKEGAN       CLOUDY    71  70  96 SW5       29.79R
6HR MIN TEMP:  70; 6HR MAX TEMP:  73; 6HR PCP:  0.18;

DUPAGE AIRPORT RAIN      71  69  93 SW20G28   29.80R
6HR MIN TEMP:  70; 6HR MAX TEMP:  71; 6HR PCP:  0.64;

WHEELING       CLOUDY    72  71  97 W7        29.81R
6HR MIN TEMP:  72; 6HR MAX TEMP:  73; 6HR PCP:  0.56;

MORRIS*        RAIN      70  68  93 SW9       29.86R
ROMEOVILLE*    RAIN      70  67  90 SW16      29.84R
NORTHERLY ISL    N/A     72  68  87 NW7         N/A
$$

LMZ740>746-221300-
SOUTHERN LAKE MICHIGAN

STATION/POSITION SKY/WX   TEMP    WIND        PRES    VSBY  WAVE
                          AIR SEA DIR/SP/G                  HT/PER
                          (F)     (DEG/KT/KT) (MB)    (MI)  (FT/S)
SOUTHERN BUOY              71 70  220/  8/ 10 1008.0          2/ 4
WILMETTE HARBOR            73 72  290/  6/ 10   N/A           2/ 3
HARRISON CRIB              74     320/ 17/ 21   N/A
BURNHAM HARBOR             72                   N/A
CALUMET HARBOR             72     210/ 12/ 16 1008.0F
BURNS HARBOR               73     210/ 17/ 21 1009.1S
MICHIGAN CITY              72     190/ 18/ 21   N/A
MICHIGAN CITY 6N           73 74  220/ 21/ 27   N/A           4
ST. JOSEPH                 74 74  310/  6/ 16 1009.6          2/ 3
$$

ILZ025>027-034>036-040-047-049-050-058-095>099-221300-
WEST-CENTRAL ILLINOIS

CITY           SKY/WX    TMP DP  RH WIND       PRES   REMARKS
QUINCY         CLOUDY    81  71  71 N10       29.89R HX  85
GALESBURG*     CLOUDY    68  67  99 SE8       29.90F
MACOMB*        RAIN      69  67  96 NE17      29.96F
JACKSONVILLE*  CLOUDY    78  73  82 CALM      29.89R HX  81
PITTSFIELD*    CLOUDY    83  71  67 CALM      29.89R HX  87
$$

ILZ028>032-037-038-041>044-048-051>054-059>061-221300-
CENTRAL ILLINOIS

CITY           SKY/WX    TMP DP  RH WIND       PRES   REMARKS
PONTIAC        RAIN      70  70  99 N9        29.93R
BLOOMINGTON    RAIN      70  68  93 NW17G28   29.97R FOG
DECATUR        MOSUNNY   77  73  87 N5        29.89R
PEORIA         TSTM      70  69  97 CALM      29.95F FOG
6HR MIN TEMP:  70; 6HR MAX TEMP:  83; 6HR PCP:  0.40;

LACON*         LGT RAIN  69  69 100 SW5       29.91R
LINCOLN*       LGT RAIN  73  72  95 N15       29.93R
SPRINGFIELD    CLOUDY    78  77  96 CALM      29.88R FOG     HX  81
6HR MIN TEMP:  78; 6HR MAX TEMP:  86; 6HR PCP:  0.02;

TAYLORVILLE    CLOUDY    77  75  94 CALM      29.88R
6HR MIN TEMP:  76; 6HR MAX TEMP:  82;

$$

ILZ033-039-045-046-055>057-062-063-221300-
EAST-CENTRAL ILLINOIS

CITY           SKY/WX    TMP DP  RH WIND       PRES   REMARKS
CHAMPAIGN      CLOUDY    74  70  87 N6        29.88R
RANTOUL*       CLOUDY    75  73  91 N5        29.89R
MATTOON        MOSUNNY   80  76  87 SW8       29.86S HX  86
PARIS*         CLOUDY    78  76  95 W3        29.87S
$$

ILZ079-100>102-221300-
SOUTHWEST ILLINOIS

CITY           SKY/WX    TMP DP  RH WIND       PRES   REMARKS
ALTON          MOSUNNY   81  75  83 S6        29.87S HX  86
BELLEVILLE     SUNNY     79  74  83 SW5       29.88S HX  83
CAHOKIA*       SUNNY     83  72  69 VRB5      29.87S HX  88
SPARTA*        SUNNY     79  74  84 SW6       29.90S HX  83
$$

ILZ064>066-069>071-074>076-080>082-084>086-088>090-092>094-221300-
SOUTH-CENTRAL ILLINOIS

CITY           SKY/WX    TMP DP  RH WIND       PRES   REMARKS
CARBONDALE     SUNNY     79  77  94 SW5       29.90S HX  83
6HR MIN TEMP:  77; 6HR MAX TEMP:  83;

CAIRO*         SUNNY     79  76  90 S5        29.92S HX  84
EFFINGHAM*     SUNNY     80  76  89 SW7       29.90S HX  85
MARION         SUNNY     81  81 100 SW9       29.91S HX  91
MT. VERNON     SUNNY     80  76  87 SW5       29.90R HX  86
CENTRALIA*     MOSUNNY   81  76  86 SW5       29.88S HX  87
SALEM*         SUNNY     82  74  77 SW6       29.89S HX  89
METROPOLIS*    SUNNY     80  76  89 S6        29.93F HX  85
$$

ILZ067-068-072-073-078-083-087-091-221300-
SOUTHEAST ILLINOIS

CITY           SKY/WX    TMP DP  RH WIND       PRES   REMARKS
LAWRENCEVILLE  SUNNY     78  76  93 SW5       29.89R FOG     HX  81
FLORA*         SUNNY     80  77  91 SW3       29.89S FOG     HX  84
FAIRFIELD*     SUNNY     78  76  93 CALM      29.88S FOG     HX  80
HARRISBURG*    SUNNY     78  76  93 SW3       29.91S FOG     HX  80
ROBINSON*      SUNNY     78  75  91 SW5       29.88F HX  80
CARMI*         SUNNY     79  76  92 SW5       29.90R FOG     HX  82
$$

ABBREVIATIONS USED IN REMARKS
   TC - TEMPERATURE IN CELSIUS
  WCI - WIND CHILL INDEX
   HX - HEAT INDEX
  VSB - VISIBILITY
$$





USA.gov is the U.S. government's official web portal to all federal, state and local government web resources and services.